This is the latest recevied weather packets stored in our database for station/object KF6YUA. If no packets are shown the sender has not sent any weather packets the latest 1 day(s).
| Time | Temp. | Humidity | Pressure | Rain* | Wind** | Luminosity | Snow |
|---|---|---|---|---|---|---|---|
| 1777993886 | 12.78° C | 96% | 1017.1 hPa | 0 mm | 0.45 m/s, 166° | 172 W/m² | - |
| 1777993582 | 12.22° C | 97% | 1017.1 hPa | 0 mm | 0.45 m/s, 154° | 166 W/m² | - |
| 1777993279 | 11.67° C | 97% | 1016.9 hPa | 0 mm | 0.89 m/s, 148° | 110 W/m² | - |
| 1777992975 | 11.67° C | 98% | 1016.8 hPa | 0 mm | 0 m/s | 103 W/m² | - |
| 1777992674 | 11.67° C | 98% | 1017 hPa | 0 mm | 0 m/s | 91 W/m² | - |
| 1777992371 | 11.67° C | 98% | 1016.7 hPa | 0 mm | 0 m/s | 82 W/m² | - |
| 1777992068 | 11.67° C | 98% | 1016.7 hPa | 0 mm | 0.89 m/s, 156° | 78 W/m² | - |
| 1777991766 | 11.67° C | 99% | 1016.8 hPa | 0 mm | 0.89 m/s, 135° | 88 W/m² | - |
| 1777991463 | 11.67° C | 99% | 1016.9 hPa | 0 mm | 0.89 m/s, 162° | 86 W/m² | - |
| 1777991160 | 11.67° C | 99% | 1016.8 hPa | 0 mm | 0.89 m/s, 135° | 81 W/m² | - |
| 1777990857 | 11.67° C | 99% | 1016.7 hPa | 0 mm | 0 m/s | 57 W/m² | - |
| 1777990554 | 11.67° C | 99% | 1016.7 hPa | 0 mm | 0.45 m/s, 151° | 56 W/m² | - |
| 1777990251 | 11.67° C | 99% | 1016.5 hPa | 0 mm | 0.89 m/s, 132° | 56 W/m² | - |
| 1777989948 | 11.11° C | 99% | 1016.5 hPa | 0 mm | 0 m/s | 38 W/m² | - |
| 1777989644 | 11.11° C | 99% | 1016.7 hPa | 0 mm | 0.45 m/s, 173° | 22 W/m² | - |
| 1777989341 | 11.11° C | 99% | 1016.6 hPa | 0 mm | 0 m/s | 18 W/m² | - |
| 1777989037 | 11.11° C | 99% | 1016.4 hPa | 0 mm | 0 m/s | 20 W/m² | - |
| 1777988733 | 11.11° C | 99% | 1016.5 hPa | 0 mm | 0.45 m/s, 145° | 15 W/m² | - |
| 1777988431 | 11.11° C | 99% | 1016.7 hPa | 0 mm | 0.45 m/s, 151° | 13 W/m² | - |
| 1777988127 | 11.11° C | 99% | 1016.5 hPa | 0 mm | 0 m/s | 7 W/m² | - |
| 1777987832 | 11.11° C | 99% | 1016.6 hPa | 0 mm | 0.89 m/s, 139° | 5 W/m² | - |
| 1777987520 | 11.11° C | 99% | 1016.4 hPa | 0 mm | 0 m/s | 1 W/m² | - |
| 1777987218 | 11.11° C | 99% | 1016.3 hPa | 0 mm | 0.89 m/s, 161° | 4 W/m² | - |
| 1777986914 | 11.11° C | 99% | 1016.3 hPa | 0 mm | 0 m/s | 0 W/m² | - |
| 1777986612 | 11.11° C | 99% | 1016.3 hPa | 0 mm | 0.89 m/s, 164° | 0 W/m² | - |
* Rain latest hour (hover to see other rain measurements)
** Current wind speed in m/s (hover to see current wind gust speed)